Dewpoint
28 26 23 21 18 15 14 14 14 12 11 10 11 12 12 13 13 14 14 14 14 15
21 19 17 15 14 13 13 12 11 10 9 10 11 12 12 13 13 14 14 14 15 15
16 15 14 13 11 11 9 9 9 9 10 11 12 13 13 13 15 14 15 15 14 14
12 11 10 9 8 8 8 9 9 10 11 12 12 13 13 14 14 14 15 15 15 16
10 9 8 8 8 9 8 10 11 12 12 12 13 14 14 14 15 15 15 16 16 18
9 9 9 9 10 10 10 11 12 12 12 13 14 14 14 15 16 17 17 17 18 19
10 10 10 11 11 11 11 11 11 12 13 14 14 13 14 18 18 18 17 17 18 19
11 11 12 12 11 11 11 10 12 13 13 14 13 11 19 20 18 17 16 16 18 19
12 12 12 11 10 9 9 11 13 13 13 12 11 16 19 21 21 18 17 18 18 19
12 12 10 9 8 7 9 12 13 13 12 11 11 17 19 20 21 19 19 19 19 19
11 10 9 7 6 8 11 12 13 12 11 11 10 17 18 20 20 19 19 19 19 20
9 8 7 6 8 10 12 13 12 12 11 10 13 16 19 21 20 19 19 20 20 21
9 7 6 8 10 12 13 12 12 11 12 13 12 15 19 20 20 20 20 22 22 25
7 6 9 11 12 12 12 12 12 13 13 13 14 17 19 21 20 20 21 20 21 22
Wind_Speed
18 17 15 13 12 9 7 6 4 4 4 6 6 7 8 8 9 7 10 10 11 9
16 17 16 13 11 10 7 5 4 4 4 5 7 8 9 10 12 11 9 12 10 8
16 14 14 13 12 10 7 4 4 5 6 7 9 9 10 11 12 11 12 10 12 11
15 14 12 12 10 8 5 5 5 6 8 10 12 12 12 13 11 14 15 15 13 14
15 13 12 11 8 6 5 5 6 7 9 11 12 13 13 13 14 15 17 17 15 15
14 12 11 9 7 5 5 6 8 9 11 12 12 13 12 12 15 16 16 16 15 16
12 11 9 7 6 6 6 7 9 9 10 10 11 11 11 13 14 15 14 16 16 17
11 10 9 7 6 6 7 8 8 9 10 11 10 10 14 13 13 15 16 15 14 13
11 9 8 6 5 6 8 8 7 9 11 14 10 15 17 17 13 14 15 16 15 14
11 9 7 5 6 7 6 7 10 12 12 14 14 15 17 18 8 14 16 16 18 17
10 8 6 6 6 4 6 9 10 12 13 13 12 17 19 20 11 13 15 17 18 19
9 8 6 5 4 6 7 8 11 12 13 14 15 17 19 19 13 15 18 17 17 18
8 7 6 5 5 4 6 9 11 13 12 14 15 17 19 19 14 15 17 15 14 18
8 8 6 5 4 7 9 10 11 12 13 12 13 15 20 20 18 18 18 17 16 15
Wind_Direction
151 155 155 151 145 135 124 109 85 79 56 34 22 14 9 3 345 329 331 328 323 310
143 143 142 132 123 119 111 106 97 64 37 22 10 5 0 346 336 329 326 319 312 300
137 130 128 126 122 116 108 90 70 39 24 10 2 357 352 337 329 328 324 314 310 302
130 128 122 117 110 107 97 68 42 23 13 5 355 353 343 336 327 329 320 315 307 298
130 126 120 114 104 100 85 55 32 19 10 1 353 342 337 333 326 320 315 312 307 297
131 128 122 113 108 91 69 46 29 19 9 355 345 335 332 323 316 313 310 308 305 293
138 132 124 117 101 78 58 43 25 14 360 353 338 332 323 318 318 315 312 314 307 292
135 127 123 111 90 73 55 37 20 2 354 351 346 336 333 330 328 330 329 323 314 308
134 130 121 107 90 67 42 19 6 3 356 349 341 330 335 337 341 343 329 324 316 307
136 131 121 102 73 47 20 2 2 358 351 339 333 331 333 332 338 328 322 319 316 312
135 129 113 84 57 23 11 2 353 345 341 336 328 334 332 328 323 313 309 306 301 299
136 120 98 82 40 21 0 351 346 341 336 333 327 329 329 329 320 307 297 291 288 291
111 111 100 71 43 8 350 348 344 335 334 330 322 320 329 330 318 307 306 307 299 305
105 98 84 65 31 6 358 345 343 338 329 322 316 318 329 329 325 315 318 320 324 318